[[{"header":{"parameterUnit":"m.s-1","parameterCategory":1,"la1":30.2991,"la2":30.254,"lo1":-89.0895,"lo2":-89.0444,"dy":0.0017,"dx":0.0017,"nx":28,"ny":28,"refTime":"2024-05-15T03:00:00:Z","depth":0,"parameterNumber":2,"parameterNumberName":"U-component_of_WINDS"},"data":[0,0,0,0,0,0,0,0,0,0,0,0,0,0,0,0,0,0,0,0,0,0,0,0,0,0,0,0,0,0,0,0,0,0,0,0,0,0,0,0,0,0,0,0,0,0,0,0,0,0,0,0,0,0,0,0,0,0,0.9555,0.9556,0,0.9651,0.9652,0.9653,0.9635,0.9633,0.9632,0.963,0.9734,0.9738,0.9743,0,0,0,0,0,0,0,0,0,0,0,0,0,0.9361,0.9365,0.9555,0.9556,0.9557,0.9651,0.9652,0.9654,0.9635,0.9633,0.9631,0.9629,0.9733,0.9738,0.9743,0,0,0,0,0,0,0,0,0,0,0,0,0,0.9451,0.9366,0.9555,0.9559,0.9561,0.9651,0.9652,0.9654,0.9636,0.9633,0.9631,0.9628,0.9731,0.9737,0.9744,0.9837,0,0,0.9764,0.9767,0,0,0,0,0,0,0,0,0.9445,0.9458,0.9558,0.9559,0.9561,0.9628,0.9622,0.9716,0.9636,0.9608,0.963,0.9627,0.9701,0.971,0.9734,0.9842,0.9846,0.9765,0.9769,0.9771,0.9773,0,0,0,0,0,0,0,0.9439,0.9453,0.9593,0.9559,0.9561,0.9559,0.9568,0.964,0.9668,0.961,0.9609,0.962,0.9702,0.9728,0.9737,0.9848,0.9764,0.977,0.9774,0.9777,1.0038,1.0041,0,0,0,0,0,0,0.9431,0.9448,0.959,0.9596,0.9495,0.9564,0.9575,0.9609,0.9667,0.9673,0.9622,0.9619,0.9718,0.9729,0.974,0.9854,0.9771,0.9778,0.9781,1.0035,1.0039,1.0042,0,0,0,0,0,0,0.9427,0.9444,0.9586,0.9522,0.954,0.957,0.9609,0.9613,0.9639,0.9677,0.9682,0.9643,0.9716,0.9731,0.9813,0.9857,0.9781,0.9787,1.0032,1.0036,1.004,1.0081,0,0,0,0,0,0,0.9421,0.9442,0.9476,0.9523,0.9543,0.9656,0.9612,0.9617,0.9649,0.9646,0.9698,0.9704,0.9715,0.9803,0.9819,0.9865,0.9792,1.0028,1.0034,1.0039,1.0076,1.0086,1.0095,0,0,0,0,0,0.9414,0.9485,0.9478,0.9496,0.9587,0.9658,0.967,0.968,0.9653,0.9689,0.9713,0.9702,0.9849,0.9812,0.983,0.9878,1.0025,1.0032,1.0039,1.0071,1.0084,1.0095,0,0,0,0,0,0,0.9445,0.9491,0.9484,0.9572,0.9611,0.9655,0.97,0.9693,0.9743,0.9738,0.975,0.9762,0.9845,0.987,0.9827,0.9972,0.9934,0.9944,0.9952,0.9965,0.9974,0.9967,0.9797,0,0,0,0,0,0.9461,0.9514,0.9552,0.9626,0.9646,0.967,0.9701,0.9706,0.9748,0.9765,0.9795,0.9838,0.9894,0.9931,0.9984,1.0079,1.0091,1.0121,1.0131,1.0138,1.0148,1.0201,1.0215,1.0064,1.0064,1.0064,0,0,0.9497,0.9529,0.9561,0.9633,0.9664,0.972,0.9684,0.9744,0.9787,0.9775,0.9853,0.9878,0.9926,1.0015,1.0056,1.0038,1.0192,1.0147,1.0153,1.0158,1.0209,1.0223,1.0236,1.0069,1.0068,1.0067,0,0,0.959,0.9619,0.9683,0.9715,0.9762,0.9777,0.9793,0.9838,0.9853,0.9932,0.9924,0.9976,1.0071,1.0107,1.0137,1.0244,1.0237,1.0262,1.0312,1.0364,1.0376,1.0386,1.0425,1.0439,1.0271,1.0271,1.0271,0,0.9628,0.971,0.9718,0.9779,0.9811,0.9801,0.9868,0.9899,0.9962,0.9985,0.9964,1.0084,1.0117,1.0214,1.024,1.0265,1.0284,1.0256,1.0373,1.0384,1.0394,1.0431,1.0446,1.0274,1.0273,1.0273,1.0273,0,0.9756,0.9813,0.986,0.9919,0.9957,1.002,1.0039,1.0077,1.0079,1.0097,1.0178,1.0217,1.0278,1.0301,1.0304,1.04,1.0387,1.0369,1.0332,1.0411,1.0446,1.046,1.0278,1.0277,1.0276,1.0275,0,0,0.9871,0.9932,0.995,0.9977,1.0028,1.0073,1.0138,1.0196,1.0228,1.0272,1.0327,1.0409,1.0393,1.0427,1.0434,1.0479,1.0563,1.0456,1.0457,1.0475,1.0672,1.0685,1.0701,1.0558,1.056,1.0562,1.0668,0,0.9968,1.0079,1.0088,1.0189,1.0243,1.0234,1.0291,1.0329,1.0348,1.0398,1.0421,1.0478,1.0452,1.0473,1.0517,1.0543,1.0602,1.0535,1.0611,1.0613,1.0599,1.0719,1.0733,1.0831,1.0681,1.0684,1.0685,0,1.0097,1.0143,1.0249,1.0293,1.0316,1.0366,1.042,1.0468,1.0512,1.0523,1.0562,1.0563,1.0631,1.059,1.0685,1.0639,1.0671,1.0688,1.0693,1.07,1.0654,1.0731,1.0862,1.0877,1.0707,1.0705,1.0704,0,1.0171,1.0259,1.0334,1.0357,1.0411,1.0446,1.0471,1.0512,1.0547,1.0595,1.0618,1.0675,1.0706,1.0751,1.0767,1.0736,1.0862,1.0823,1.0874,1.0874,1.0901,1.0899,1.104,1.0921,1.0921,1.0921,1.092,0,1.0279,1.0344,1.0368,1.0414,1.0487,1.0498,1.0571,1.0593,1.0631,1.0682,1.068,1.0729,1.0747,1.08,1.0814,1.0891,1.0905,1.0917,1.092,1.0918,1.0916,1.0939,1.0933,1.0924,1.0924,1.0923,1.0922,0,1.0374,1.0392,1.0473,1.0516,1.0529,1.0581,1.0619,1.0665,1.0683,1.0749,1.0765,1.0795,1.0857,1.0878,1.0953,1.0963,1.1053,1.105,1.1037,1.1038,1.1088,1.1083,1.1248,1.1271,1.1137,1.1138,1.1139,0,1.0442,1.0491,1.054,1.0573,1.0598,1.0653,1.0688,1.0701,1.0738,1.0793,1.0832,1.0893,1.0943,1.1042,1.1072,1.113,1.1129,1.1183,1.1138,1.1134,1.1131,1.1127,1.1133,1.1191,1.1193,1.1194,1.1195,0,1.0561,1.0567,1.0617,1.067,1.0712,1.0755,1.0796,1.0824,1.0844,1.0886,1.0949,1.0987,1.1064,1.1125,1.1184,1.1211,1.1208,1.1209,1.1224,1.1222,1.1212,1.1219,1.106,1.1205,1.1204,1.1203,1.1203,1.1202,1.0644,1.0688,1.0729,1.0785,1.0817,1.0857,1.0901,1.0925,1.0977,1.1039,1.1044,1.1112,1.1157,1.1235,1.1266,1.132,1.1305,1.1327,1.1333,1.1338,1.1342,1.1203,1.1331,1.1331,1.1331,1.133,1.133,0,1.0764,1.0789,1.084,1.0898,1.0943,1.0933,1.0979,1.1017,1.1076,1.1117,1.1165,1.1238,1.1297,1.1332,1.1392,1.1429,1.1429,1.1444,1.1442,1.1449,1.1352,1.1333,1.1444,1.1444,1.1444,1.1444,1.1443,1.1443,1.0831,1.0905,1.0916,1.1007,1.1033,1.1098,1.1125,1.1162,1.1195,1.1275,1.1324,1.1345,1.1384,1.1447,1.1502,1.1511,1.1533,1.1551,1.1558,1.1467,1.1455,1.1444,1.1426,1.1555,1.1555,1.165,1.1651,1.1652]},{"header":{"parameterUnit":"m.s-1","parameterCategory":1,"la1":30.2991,"la2":30.254,"lo1":-89.0895,"lo2":-89.0444,"dy":0.0017,"dx":0.0017,"nx":28,"ny":28,"refTime":"2024-05-15T03:00:00:Z","depth":0,"parameterNumber":3,"parameterNumberName":"V-component_of_WINDS"},"data":[0,0,0,0,0,0,0,0,0,0,0,0,0,0,0,0,0,0,0,0,0,0,0,0,0,0,0,0,0,0,0,0,0,0,0,0,0,0,0,0,0,0,0,0,0,0,0,0,0,0,0,0,0,0,0,0,0,0,1.1555,1.1558,0,1.1816,1.1819,1.1822,1.1866,1.1863,1.1861,1.1859,1.2127,1.2135,1.2145,0,0,0,0,0,0,0,0,0,0,0,0,0,1.1096,1.1105,1.1555,1.1558,1.1562,1.1815,1.1819,1.1822,1.1866,1.1863,1.1861,1.1858,1.2124,1.2134,1.2145,0,0,0,0,0,0,0,0,0,0,0,0,0,1.132,1.1107,1.1555,1.1614,1.1622,1.1814,1.1819,1.1823,1.1866,1.1863,1.186,1.1857,1.212,1.2133,1.2147,1.2299,0,0,1.2189,1.2195,0,0,0,0,0,0,0,0,1.1307,1.1337,1.1602,1.161,1.1619,1.1805,1.1755,1.1983,1.1867,1.1774,1.1859,1.1855,1.2022,1.2044,1.21,1.2311,1.2323,1.219,1.2199,1.2205,1.2209,0,0,0,0,0,0,0,1.1292,1.1326,1.1658,1.1606,1.1617,1.1628,1.1656,1.1798,1.1914,1.1782,1.1785,1.1816,1.2026,1.2087,1.2107,1.2327,1.219,1.2202,1.2211,1.2216,1.2676,1.268,0,0,0,0,0,0,1.1265,1.1313,1.165,1.1666,1.1452,1.1639,1.167,1.1749,1.1912,1.1934,1.1818,1.1817,1.2065,1.209,1.2116,1.2306,1.2204,1.2217,1.2225,1.2672,1.2677,1.2681,0,0,0,0,0,0,1.1255,1.1295,1.1639,1.1491,1.1535,1.165,1.1738,1.1755,1.1816,1.194,1.196,1.1859,1.2063,1.2097,1.2253,1.2316,1.2224,1.2236,1.2667,1.2674,1.2679,1.2686,0,0,0,0,0,0,1.1242,1.1291,1.135,1.1492,1.1543,1.1772,1.1742,1.1763,1.1839,1.184,1.1983,1.2004,1.2063,1.2232,1.2267,1.2333,1.2247,1.2662,1.267,1.2677,1.268,1.2691,1.27,0,0,0,0,0,1.1226,1.1342,1.1353,1.1394,1.1619,1.1776,1.1805,1.1871,1.1844,1.1905,1.1984,1.1999,1.2302,1.2248,1.2287,1.2359,1.2659,1.2668,1.2677,1.2676,1.2689,1.27,0,0,0,0,0,0,1.1206,1.1362,1.1376,1.1541,1.1645,1.1783,1.1861,1.1882,1.1996,1.1992,1.2068,1.21,1.2253,1.2321,1.2257,1.2514,1.2479,1.2496,1.2465,1.2478,1.2488,1.2469,1.2258,0,0,0,0,0,1.122,1.1334,1.1464,1.1598,1.1649,1.1746,1.1816,1.1858,1.1968,1.2013,1.2104,1.221,1.233,1.2407,1.2524,1.2689,1.2722,1.2757,1.2767,1.2775,1.2789,1.2883,1.29,1.271,1.271,1.271,0,0,1.1252,1.1351,1.1419,1.1596,1.1681,1.1798,1.1783,1.1906,1.1994,1.2032,1.2186,1.2255,1.238,1.2541,1.2617,1.2603,1.2849,1.2786,1.2791,1.2802,1.2894,1.2911,1.2927,1.2716,1.2715,1.2714,0,0,1.1371,1.1456,1.1578,1.1663,1.1792,1.1855,1.1884,1.2019,1.2067,1.2222,1.2253,1.2357,1.2561,1.2649,1.272,1.287,1.2889,1.2905,1.2958,1.3048,1.3063,1.3077,1.3132,1.315,1.2919,1.2919,1.2919,0,1.1395,1.1572,1.1637,1.1761,1.1838,1.1876,1.1999,1.2079,1.2239,1.2292,1.2273,1.253,1.2616,1.2799,1.2835,1.2891,1.2927,1.2891,1.3055,1.307,1.3084,1.3137,1.3157,1.292,1.292,1.292,1.292,0,1.1595,1.1717,1.1799,1.1953,1.2039,1.2162,1.2246,1.2325,1.2358,1.2424,1.2581,1.2685,1.2824,1.287,1.2904,1.3058,1.3045,1.304,1.3006,1.3102,1.3153,1.3174,1.2922,1.2922,1.2922,1.2921,0,0,1.1712,1.1898,1.1928,1.1998,1.2142,1.2238,1.2362,1.2497,1.2564,1.2672,1.2779,1.295,1.2946,1.3026,1.307,1.3148,1.3262,1.3134,1.3138,1.3156,1.3439,1.3445,1.3467,1.3273,1.3277,1.3281,1.343,0,1.1849,1.2071,1.2133,1.2321,1.2435,1.2472,1.258,1.268,1.2744,1.2849,1.292,1.304,1.3025,1.3074,1.3153,1.3231,1.332,1.3221,1.3375,1.3379,1.3345,1.3494,1.35,1.3636,1.345,1.3453,1.3456,0,1.2039,1.2151,1.2351,1.248,1.253,1.2626,1.2755,1.2855,1.2969,1.301,1.3099,1.3135,1.3266,1.3223,1.3404,1.3335,1.3401,1.3449,1.3456,1.3475,1.3425,1.3519,1.368,1.3702,1.3488,1.3485,1.3483,0,1.2106,1.2307,1.2452,1.2511,1.2665,1.2732,1.2799,1.2909,1.2987,1.3099,1.315,1.3275,1.3345,1.3441,1.351,1.3472,1.3686,1.3649,1.3725,1.3723,1.3771,1.3768,1.3948,1.3809,1.3808,1.3808,1.3808,0,1.2255,1.2376,1.2485,1.2575,1.2711,1.278,1.2914,1.2982,1.308,1.3184,1.3222,1.3319,1.3403,1.3511,1.3565,1.3708,1.3738,1.3776,1.3789,1.3774,1.377,1.3821,1.3814,1.3814,1.3812,1.3811,1.381,0,1.2354,1.2432,1.2593,1.2725,1.2761,1.2856,1.2969,1.3058,1.3121,1.3252,1.3287,1.3388,1.3517,1.3594,1.3757,1.3794,1.3952,1.396,1.3914,1.3921,1.3994,1.3987,1.4215,1.4249,1.4085,1.4086,1.4087,0,1.2445,1.254,1.2681,1.2753,1.2821,1.2937,1.3016,1.3087,1.3167,1.3303,1.3376,1.3506,1.3616,1.382,1.3908,1.4033,1.4046,1.4117,1.4065,1.4047,1.405,1.4045,1.4055,1.4127,1.4128,1.4129,1.413,0,1.2599,1.2633,1.2745,1.2871,1.2963,1.3066,1.3168,1.3224,1.3312,1.3401,1.3533,1.3617,1.3783,1.3914,1.4046,1.4115,1.4138,1.4145,1.417,1.4157,1.4127,1.4147,1.3941,1.4141,1.414,1.4139,1.4138,1.4138,1.27,1.2785,1.2898,1.3022,1.3105,1.32,1.329,1.3364,1.3475,1.3616,1.3651,1.379,1.39,1.408,1.4152,1.4262,1.4251,1.4286,1.4296,1.4304,1.4307,1.4107,1.4286,1.4286,1.4285,1.4285,1.4285,0,1.2858,1.2932,1.3044,1.3186,1.3283,1.3294,1.3407,1.3488,1.361,1.3711,1.3817,1.3969,1.4095,1.4191,1.432,1.439,1.4404,1.4422,1.4419,1.4435,1.4309,1.4275,1.4408,1.4408,1.4408,1.4408,1.4408,1.4408,1.2952,1.3097,1.3144,1.3331,1.3404,1.3541,1.3605,1.3692,1.3773,1.3941,1.4045,1.4107,1.4207,1.4343,1.4459,1.4485,1.4531,1.4548,1.4575,1.4457,1.4443,1.4431,1.44,1.4557,1.4557,1.4693,1.4694,1.4695]}]]